TimeAKST,TemperatureF,Dew PointF,Humidity,Sea Level PressureIn,VisibilityMPH,Wind Direction,Wind SpeedMPH,Gust SpeedMPH,PrecipitationIn,Events,Conditions,WindDirDegrees,DateUTC
12:05 AM,15.1,12.0,88,30.06,2.5,Calm,Calm,-,0.00,Snow,Light Snow,0,2013-11-06 09:05:00
12:53 AM,17.1,14.0,88,30.08,4.0,Calm,Calm,-,0.00,Snow,Light Snow,0,2013-11-06 09:53:00
1:04 AM,17.1,14.0,88,30.08,2.5,Calm,Calm,-,0.00,Snow,Light Snow,0,2013-11-06 10:04:00
1:16 AM,18.0,15.1,88,30.08,1.5,Calm,Calm,-,0.00,Snow,Light Snow,0,2013-11-06 10:16:00
1:33 AM,18.0,15.1,88,30.09,2.0,Calm,Calm,-,0.01,Snow,Light Snow,0,2013-11-06 10:33:00
1:44 AM,18.0,15.1,88,30.09,3.0,Calm,Calm,-,0.01,Snow,Light Snow,0,2013-11-06 10:44:00
1:53 AM,17.1,15.1,92,30.10,4.0,Calm,Calm,-,0.01,Snow,Light Snow,0,2013-11-06 10:53:00
2:10 AM,17.1,14.0,88,30.10,2.0,Calm,Calm,-,0.00,Snow,Light Snow,0,2013-11-06 11:10:00
2:35 AM,17.1,14.0,88,30.11,4.0,Calm,Calm,-,0.00,Snow,Light Snow,0,2013-11-06 11:35:00
3:53 AM,12.0,9.0,88,30.13,8.0,SSE,3.5,-,0.00,Snow,Light Snow,160,2013-11-06 12:53:00
4:53 AM,12.9,9.0,84,30.20,8.0,South,3.5,-,0.00,,Overcast,180,2013-11-06 13:53:00
5:53 AM,10.9,8.1,88,30.16,5.0,Calm,Calm,-,0.00,Snow,Light Snow,0,2013-11-06 14:53:00
6:53 AM,10.9,7.0,84,30.22,10.0,Calm,Calm,-,0.00,,Mostly Cloudy,0,2013-11-06 15:53:00
7:41 AM,12.9,10.0,88,30.18,10.0,Calm,Calm,-,N/A,,Overcast,0,2013-11-06 16:41:00
7:53 AM,14.0,10.0,84,30.24,10.0,Calm,Calm,-,N/A,,Overcast,0,2013-11-06 16:53:00
8:04 AM,14.0,10.9,88,30.18,10.0,Calm,Calm,-,N/A,,Overcast,0,2013-11-06 17:04:00
8:53 AM,15.1,10.9,84,30.25,10.0,Calm,Calm,-,N/A,,Overcast,0,2013-11-06 17:53:00
9:53 AM,15.1,12.0,88,30.26,7.0,Calm,Calm,-,N/A,,Overcast,0,2013-11-06 18:53:00
10:53 AM,19.9,17.1,89,30.26,7.0,Calm,Calm,-,N/A,,Overcast,0,2013-11-06 19:53:00
11:17 AM,21.0,18.0,88,30.21,7.0,Calm,Calm,-,N/A,,Overcast,0,2013-11-06 20:17:00
11:53 AM,21.9,18.0,85,30.26,9.0,Calm,Calm,-,N/A,,Overcast,0,2013-11-06 20:53:00
12:37 PM,21.9,17.1,82,30.21,2.5,WNW,5.8,-,0.00,Snow,Light Snow,300,2013-11-06 21:37:00
12:46 PM,21.9,17.1,82,30.21,4.0,WNW,4.6,-,0.00,Snow,Light Snow,300,2013-11-06 21:46:00
12:53 PM,21.9,16.0,78,30.26,4.0,NNW,5.8,-,0.00,Snow,Light Snow,330,2013-11-06 21:53:00
1:17 PM,21.9,17.1,82,30.21,2.0,Calm,Calm,-,0.00,Snow,Light Snow,0,2013-11-06 22:17:00
1:25 PM,21.9,18.0,85,30.21,3.0,West,3.5,-,0.00,Snow,Light Snow,280,2013-11-06 22:25:00
1:53 PM,21.0,16.0,81,30.27,9.0,WNW,4.6,-,0.00,,Overcast,290,2013-11-06 22:53:00
2:53 PM,19.9,15.1,81,30.27,4.0,WNW,5.8,-,0.00,Snow,Light Snow,300,2013-11-06 23:53:00
3:08 PM,19.9,15.1,81,30.22,2.0,Calm,Calm,-,0.00,Snow,Light Snow,0,2013-11-07 00:08:00
3:18 PM,19.9,15.1,81,30.22,6.0,Calm,Calm,-,0.00,Snow,Light Snow,0,2013-11-07 00:18:00
3:42 PM,19.0,14.0,81,30.22,10.0,Calm,Calm,-,0.00,,Overcast,0,2013-11-07 00:42:00
3:53 PM,19.0,14.0,81,30.28,10.0,Calm,Calm,-,0.00,,Overcast,0,2013-11-07 00:53:00
4:53 PM,18.0,10.9,74,30.28,10.0,Variable,3.5,-,N/A,,Overcast,0,2013-11-07 01:53:00
5:53 PM,12.9,8.1,81,30.29,10.0,Calm,Calm,-,N/A,,Overcast,0,2013-11-07 02:53:00
6:53 PM,9.0,5.0,84,30.29,10.0,South,3.5,-,N/A,,Mostly Cloudy,180,2013-11-07 03:53:00
7:53 PM,5.0,1.0,84,30.29,10.0,Calm,Calm,-,N/A,,Overcast,0,2013-11-07 04:53:00
8:53 PM,1.9,-2.0,83,30.28,10.0,SSW,4.6,-,N/A,,Clear,210,2013-11-07 05:53:00
9:53 PM,-0.0,-5.1,79,30.28,10.0,Calm,Calm,-,N/A,,Partly Cloudy,0,2013-11-07 06:53:00
10:53 PM,-2.0,-6.0,83,30.27,10.0,Calm,Calm,-,N/A,,Clear,0,2013-11-07 07:53:00
11:53 PM,-5.1,-9.9,80,30.27,10.0,Calm,Calm,-,N/A,,Clear,0,2013-11-07 08:53:00